Regional Weather Roundup
Issued by NWS

Home | Current Version | Previous Version | Graphics & Text | Print | Product List | Glossary On
Versions: 1 2 3 4 5 6 7 8 9 10 11 12 13 14 15 16 17 18 19 20 21 22 23 24 25 26 27 28 29 30 31 32 33 34 35 36 37 38 39 40 41 42 43 44 45 46 47 48 49 50
000
ASUS43 KBIS 051210
RWRND

NORTH DAKOTA REGIONAL WEATHER ROUNDUP
NATIONAL WEATHER SERVICE BISMARCK ND
600 AM CST THU MAR 05 2015

NOTE: "FAIR" INDICATES FEW OR NO CLOUDS BELOW 12,000 FEET WITH NO
SIGNIFICANT WEATHER AND/OR OBSTRUCTIONS TO VISIBILITY.


NDZ001>003-009>011-017-051300-
NORTHWEST NORTH DAKOTA

CITY           SKY/WX    TMP DP  RH WIND       PRES   REMARKS
WILLISTON        N/A    N/A N/A N/A MISG      30.08F
MINOT          MOCLDY    -4 -12  68 S9        30.14S WCI -20
MINOT AFB      MOCLDY    -4 -11  70 S9        30.14S WCI -20
$$

NDZ018>021-031>035-040>046-051300-
SOUTHWEST NORTH DAKOTA

CITY           SKY/WX    TMP DP  RH WIND       PRES   REMARKS
BISMARCK       PTCLDY    -5 -11  75 E6        30.23F WCI -18
6HR MIN TEMP:  -8; 6HR MAX TEMP:  -5;

DICKINSON      PTCLDY     5  -3  69 S14       30.06S WCI -12
GARRISON         N/A     -8 -12  83 S5        30.15F WCI -19
6HR MIN TEMP: -11; 6HR MAX TEMP:  -7;

HETTINGER ARPT MOCLDY     4  -5  66 CALM      30.12S
$$

NDZ004>008-012>016-024-026-027-054-051300-
NORTHEAST NORTH DAKOTA

CITY           SKY/WX    TMP DP  RH WIND       PRES   REMARKS
GRAND FORKS    MOCLDY   -13 -18  78 S7        30.35F WCI -29
GRND FRKS AFB  MOCLDY   -10 -17  69 SW7       30.33F WCI -25
DEVILS LAKE    PTCLDY    -8 -17  65 SW6       30.23F WCI -21
$$

NDZ022-023-025-028>030-036>039-047>053-051300-
SOUTHEAST NORTH DAKOTA

CITY           SKY/WX    TMP DP  RH WIND       PRES   REMARKS
FARGO          PTCLDY    -8 -15  71 S7        30.40S WCI -23
6HR MIN TEMP: -11; 6HR MAX TEMP:  -6;

JAMESTOWN      MOCLDY   -10 -16  74 S8        30.27F WCI -26
$$




USA.gov is the U.S. government's official web portal to all federal, state and local government web resources and services.